This is the latest recevied weather packets stored in our database for station/object LZ1ASO-10. If no packets are shown the sender has not sent any weather packets the latest 10 day(s).
| Time | Temp. | Humidity | Pressure | Rain* | Wind** | Luminosity | Snow |
|---|---|---|---|---|---|---|---|
| 1778015574 | 17.78° C | 43% | 1017.5 hPa | - | - | - | - |
| 1778014674 | 18.33° C | 42% | 1017.5 hPa | - | - | - | - |
| 1778013774 | 18.33° C | 42% | 1017.5 hPa | - | - | - | - |
| 1778012874 | 18.33° C | 42% | 1017.5 hPa | - | - | - | - |
| 1778011973 | 18.89° C | 41% | 1017.5 hPa | - | - | - | - |
| 1778011073 | 18.89° C | 41% | 1017.6 hPa | - | - | - | - |
| 1778010173 | 18.89° C | 41% | 1017.4 hPa | - | - | - | - |
| 1778009273 | 19.44° C | 40% | 1017.5 hPa | - | - | - | - |
| 1778008373 | 19.44° C | 39% | 1017.4 hPa | - | - | - | - |
| 1778007473 | 19.44° C | 39% | 1017.4 hPa | - | - | - | - |
| 1778006573 | 20° C | 38% | 1017.3 hPa | - | - | - | - |
| 1778005673 | 20° C | 39% | 1017.3 hPa | - | - | - | - |
| 1778004772 | 20.56° C | 38% | 1017.2 hPa | - | - | - | - |
| 1778003872 | 21.11° C | 37% | 1017.1 hPa | - | - | - | - |
| 1778002972 | 21.11° C | 36% | 1017.1 hPa | - | - | - | - |
| 1778002072 | 21.67° C | 35% | 1017 hPa | - | - | - | - |
| 1778001172 | 22.22° C | 34% | 1017 hPa | - | - | - | - |
| 1777999372 | 23.33° C | 32% | 1016.9 hPa | - | - | - | - |
| 1777998472 | 23.89° C | 32% | 1016.8 hPa | - | - | - | - |
| 1777997571 | 24.44° C | 31% | 1016.9 hPa | - | - | - | - |
| 1777996671 | 24.44° C | 30% | 1016.8 hPa | - | - | - | - |
| 1777995771 | 25° C | 31% | 1016.8 hPa | - | - | - | - |
| 1777994871 | 25° C | 30% | 1016.7 hPa | - | - | - | - |
| 1777993971 | 25° C | 30% | 1016.8 hPa | - | - | - | - |
| 1777993071 | 25° C | 29% | 1017 hPa | - | - | - | - |
* Rain since midnight (hover to see other rain measurements)
** Current wind speed in m/s (hover to see current wind gust speed)